{"data":{"norad_id":54841,"intl_designator":"2022-177X","name":"STARLINK-4659","alt_names":[],"object_type":"PAYLOAD","status":"ACTIVE","operator":null,"country":"US","launch_date":"2022-12-28","launch_site_code":"AFETR","launch_vehicle":null,"mission":null,"orbit_class":"UNKNOWN","rcs_meters":null,"size_class":null,"mass_kg":null,"dimensions":null,"purposes":["comms"],"wikipedia_slug":null,"has_3d_model":false,"image_url":null,"decayed_at":null,"tle_current":{"epoch":"2026-05-24T22:50:24.844416Z","epoch_age_seconds":82314,"freshness":"FRESH","line1":"1 54841U 22177X   26144.95167644 -.00000090  00000+0  62450-5 0  9991","line2":"2 54841  43.0066  62.2204 0001307 271.0290  89.0412 15.27574527188625","mean_motion":15.27574527,"eccentricity":0.0001307,"inclination_deg":43.0066,"raan_deg":62.2204,"arg_perigee_deg":271.029,"mean_anomaly_deg":89.0412,"bstar":6.245e-6,"rev_number":18862,"period_min":94.267086452928,"perigee_km":482.1687250548,"apogee_km":483.96224338417,"semimajor_km":6861.2024842195,"source":"CELESTRAK","updated_at":"2026-05-25T13:38:17.723590Z"}}}